Regional Weather Roundup
Issued by NWS

Home | Current Version | Previous Version | Graphics & Text | Print | Product List | Glossary On
Versions: 1 2 3 4 5 6 7 8 9 10 11 12 13 14 15 16 17 18 19 20 21 22 23 24 25 26 27 28 29 30 31 32 33 34 35 36 37 38 39 40 41 42 43 44 45 46 47 48 49 50
000
ASUS43 KLOT 022313
RWRIL

ILLINOIS REGIONAL WEATHER ROUNDUP
NATIONAL WEATHER SERVICE CHICAGO/ROMEOVILLE IL
600 PM CDT WED SEP 02 2015

NOTE: "FAIR" INDICATES FEW OR NO CLOUDS BELOW 12,000 FEET WITH NO
SIGNIFICANT WEATHER AND/OR OBSTRUCTIONS TO VISIBILITY.

* THESE STATIONS ARE NOT UNDER NWS QUALITY CONTROL. THEY ALSO MAY NOT
  REPORT WEATHER SUCH AS PRECIPITATION OR FOG.

ILZ001-002-007-009-015-016-024-030000-
NORTHWEST ILLINOIS

CITY           SKY/WX    TMP DP  RH WIND       PRES   REMARKS
MOLINE         CLOUDY    85  70  60 S6        29.94S HX  89
STERLING*      PTSUNNY   88  70  55 SW3       29.93F HX  92
SAVANNA*       CLOUDY    84  67  56 S6        29.94S HX  87
$$

ILZ003-004-008-010-011-017-018-030000-
NORTH CENTRAL ILLINOIS

CITY           SKY/WX    TMP DP  RH WIND       PRES   REMARKS
ROCKFORD       CLOUDY    84  69  60 W7        29.97S HX  88
FREEPORT*      PTSUNNY   82  67  61 SW8       29.97F HX  84
ROCHELLE*      CLOUDY    82  73  73 CALM      29.97F HX  87
DE KALB*       PTSUNNY   82  72  70 CALM      29.98S HX  87
PERU*          PTSUNNY   84  67  56 SW3       29.97S HX  87
$$

ILZ005-006-012>014-019>023-030000-
NORTHEAST ILLINOIS

CITY           SKY/WX    TMP DP  RH WIND       PRES   REMARKS
CHICAGO-OHARE  PTSUNNY   86  67  52 SW10      29.95S HX  89
CHICAGO-MIDWAY PTSUNNY   88  68  51 W10       29.95S HX  91
AURORA         PTSUNNY   84  71  65 SW5       29.97S HX  89
LANSING*       PTSUNNY   87  67  51 SW10      29.96F HX  90
JOLIET*        PTSUNNY   88  71  57 SW3       29.96S HX  93
WAUKEGAN       PTSUNNY   83  70  64 VRB5      29.95S HX  87
DUPAGE AIRPORT PTSUNNY   84  69  60 SW7       29.96S HX  88
KANKAKEE*      MOSUNNY   83  72  69 S3        29.97F HX  89
WHEELING       PTSUNNY   87  66  49 SW8       29.96S HX  89
MORRIS*        PTSUNNY   85  71  62 SW6       29.95F HX  90
ROMEOVILLE*    PTSUNNY   84  67  57 W5        29.96F HX  87
NORTHERLY ISL    N/A     88  63  43 SW10        N/A  HX  89
$$

LMZ740>746-030000-
SOUTHERN LAKE MICHIGAN

STATION/POSITION SKY/WX   TEMP    WIND        PRES    VSBY  WAVE
                          AIR SEA DIR/SP/G                  HT/PER
                          (F)     (DEG/KT/KT) (MB)    (MI)  (FT/S)
SOUTHERN BUOY              74 72  160/  4/  6 1013.6F         0
WILMETTE HARBOR            74 62  260/  2/  4   N/A           0
HARRISON CRIB              87     220/ 17/ 21   N/A
BURNHAM HARBOR             88     230/  6/ 13   N/A
CALUMET HARBOR             88     230/  7/ 11   N/A
BURNS HARBOR               86     230/  9/ 12 1014.9F
MICHIGAN CITY              85     120/  1/  1   N/A
MICHIGAN CITY 6N           82 76  340/  2/  6   N/A           0
ST. JOSEPH                 80 75  170/  4/  4   N/A           1
$$

ILZ025>027-034>036-040-047-049-050-058-095>099-030000-
WEST-CENTRAL ILLINOIS

CITY           SKY/WX    TMP DP  RH WIND       PRES   REMARKS
QUINCY         MOSUNNY   87  67  51 S7        29.97S HX  90
GALESBURG*     MOSUNNY   84  71  63 S6        29.96S HX  89
MACOMB*        MOSUNNY   88  66  48 SW7       29.98F HX  90
JACKSONVILLE*  MOSUNNY   89  67  47 SW8       29.98S HX  92
PITTSFIELD*    MOSUNNY   87  68  52 S7        29.99S HX  90
$$

ILZ028>032-037-038-041>044-048-051>054-059>061-030000-
CENTRAL ILLINOIS

CITY           SKY/WX    TMP DP  RH WIND       PRES   REMARKS
PONTIAC        PTSUNNY   86  72  63 SW5       29.98S HX  92
BLOOMINGTON    PTSUNNY   89  69  51 SW9       29.99F HX  93
DECATUR        MOSUNNY   88  66  48 SW10      29.99S HX  90
PEORIA         PTSUNNY   89  67  47 W6        29.96F HX  92
LACON*         CLOUDY    83  70  63 CALM      29.95F HX  87
LINCOLN*       MOSUNNY   91  65  42 SW6       29.96F HX  92
SPRINGFIELD    PTSUNNY   90  65  43 SW9       29.98F HX  92
TAYLORVILLE    MOSUNNY   82  68  61 S5        30.00S HX  85
$$

ILZ033-039-045-046-055>057-062-063-030000-
EAST-CENTRAL ILLINOIS

CITY           SKY/WX    TMP DP  RH WIND       PRES   REMARKS
CHAMPAIGN      MOSUNNY   88  67  49 SW8       29.99F HX  91
MATTOON        MOSUNNY   86  67  52 S7        30.00S HX  89
PARIS*         MOSUNNY   87  69  55 S7        30.02S HX  91
$$

ILZ079-100>102-030000-
SOUTHWEST ILLINOIS

CITY           SKY/WX    TMP DP  RH WIND       PRES   REMARKS
ALTON          PTSUNNY   82  70  65 S6        29.99R HX  86
BELLEVILLE     MOSUNNY   85  74  67 SE1       29.97S HX  93
CAHOKIA*       MOSUNNY   89  69  51 S3        29.98R HX  93
SPARTA*        SUNNY     87  69  55 SE7       30.00S HX  91
$$

ILZ064>066-069>071-074>076-080>082-084>086-088>090-092>094-030000-
SOUTH-CENTRAL ILLINOIS

CITY           SKY/WX    TMP DP  RH WIND       PRES   REMARKS
CARBONDALE     SUNNY     87  67  51 SW8       29.99F HX  90
CAIRO*         SUNNY     87  73  64 SE6       29.99F HX  94
EFFINGHAM*     MOSUNNY   87  65  47 S5        30.02S HX  89
MARION         MOSUNNY   90  70  51 S6        30.01F HX  95
MT. VERNON     SUNNY     90  68  48 S7        30.01S HX  93
CENTRALIA*     SUNNY     89  70  54 S6        29.99S HX  94
SALEM*         SUNNY     87  67  51 S5        30.00S HX  90
METROPOLIS*    SUNNY     88  72  58 CALM      30.00F HX  95
$$

ILZ067-068-072-073-078-083-087-091-030000-
SOUTHEAST ILLINOIS

CITY           SKY/WX    TMP DP  RH WIND       PRES   REMARKS
LAWRENCEVILLE  SUNNY     89  67  47 S6        30.00S HX  92
FLORA*         SUNNY     88  64  44 SW6       30.00S HX  89
FAIRFIELD*     SUNNY     88  67  49 S5        29.99S HX  91
HARRISBURG*    SUNNY     89  68  50 S7        29.99F HX  92
ROBINSON*      SUNNY     88  68  51 S3        30.01S HX  91
CARMI*         SUNNY     87  70  56 S6        29.99F HX  92
$$

ABBREVIATIONS USED IN REMARKS
   TC - TEMPERATURE IN CELSIUS
  WCI - WIND CHILL INDEX
   HX - HEAT INDEX
  VSB - VISIBILITY
$$




USA.gov is the U.S. government's official web portal to all federal, state and local government web resources and services.